Time,TemperatureF,DewpointF,PressureIn,WindDirection,WindDirectionDegrees,WindSpeedMPH,WindSpeedGustMPH,Humidity,HourlyPrecipIn,Conditions,Clouds,dailyrainin,SolarRadiationWatts/m^2,SoftwareType,DateUTC
2013-05-07 00:04:00,60.0,53.8,30.01,WNW,301,4.0,5.0,80,0.00,,,0.00,0,Wunderground v.1.15,2013-05-07 07:04:00,
2013-05-07 00:14:00,60.0,54.2,30.00,WNW,296,4.0,4.0,81,0.00,,,0.00,0,Wunderground v.1.15,2013-05-07 07:14:00,
2013-05-07 00:19:00,59.9,54.1,30.01,WNW,294,3.0,3.0,81,0.00,,,0.00,0,Wunderground v.1.15,2013-05-07 07:19:00,
2013-05-07 00:24:00,59.9,54.1,30.01,WNW,295,1.0,3.0,81,0.00,,,0.00,0,Wunderground v.1.15,2013-05-07 07:24:00,
2013-05-07 00:34:00,59.9,54.1,30.01,WNW,297,3.0,5.0,81,0.00,,,0.00,0,Wunderground v.1.15,2013-05-07 07:34:00,
2013-05-07 00:39:00,59.9,54.1,30.01,WNW,296,2.0,5.0,81,0.00,,,0.00,0,Wunderground v.1.15,2013-05-07 07:39:00,
2013-05-07 00:49:00,60.0,54.2,30.00,WNW,295,3.0,3.0,81,0.00,,,0.00,0,Wunderground v.1.15,2013-05-07 07:49:00,
2013-05-07 00:59:00,59.9,54.1,30.00,West,272,3.0,5.0,81,0.00,,,0.00,0,Wunderground v.1.15,2013-05-07 07:59:00,
2013-05-07 01:09:00,59.7,53.9,30.00,West,277,4.0,4.0,81,0.00,,,0.00,0,Wunderground v.1.15,2013-05-07 08:09:00,
2013-05-07 01:14:00,59.6,54.1,30.00,West,274,3.0,4.0,82,0.00,,,0.00,0,Wunderground v.1.15,2013-05-07 08:14:00,
2013-05-07 01:24:00,59.5,54.3,30.00,West,274,4.0,7.0,83,0.00,,,0.00,0,Wunderground v.1.15,2013-05-07 08:24:00,
2013-05-07 01:29:00,59.5,54.3,30.00,West,274,3.0,3.0,83,0.00,,,0.00,0,Wunderground v.1.15,2013-05-07 08:29:00,
2013-05-07 01:39:00,59.3,54.1,30.00,West,274,2.0,2.0,83,0.00,,,0.00,0,Wunderground v.1.15,2013-05-07 08:39:00,
2013-05-07 01:49:00,59.2,54.0,30.00,West,275,1.0,2.0,83,0.00,,,0.00,0,Wunderground v.1.15,2013-05-07 08:49:00,
2013-05-07 01:54:00,59.2,54.0,30.00,West,274,1.0,2.0,83,0.00,,,0.00,0,Wunderground v.1.15,2013-05-07 08:54:00,
2013-05-07 02:04:00,59.1,53.9,30.00,West,276,1.0,2.0,83,0.00,,,0.00,0,Wunderground v.1.15,2013-05-07 09:04:00,
2013-05-07 02:09:00,59.0,53.8,30.00,West,274,1.0,1.0,83,0.00,,,0.00,0,Wunderground v.1.15,2013-05-07 09:09:00,
2013-05-07 02:19:00,58.9,53.7,30.00,West,275,1.0,1.0,83,0.00,,,0.00,0,Wunderground v.1.15,2013-05-07 09:19:00,
2013-05-07 02:29:00,58.8,53.6,30.00,West,274,2.0,3.0,83,0.00,,,0.00,0,Wunderground v.1.15,2013-05-07 09:29:00,
2013-05-07 02:34:00,58.9,53.7,30.00,West,276,2.0,3.0,83,0.00,,,0.00,0,Wunderground v.1.15,2013-05-07 09:34:00,
2013-05-07 02:44:00,58.8,53.6,30.00,West,274,1.0,1.0,83,0.00,,,0.00,0,Wunderground v.1.15,2013-05-07 09:44:00,
2013-05-07 02:54:00,58.9,53.7,30.00,West,276,2.0,2.0,83,0.00,,,0.00,0,Wunderground v.1.15,2013-05-07 09:54:00,
2013-05-07 03:04:00,59.0,53.8,30.00,West,274,2.0,3.0,83,0.00,,,0.00,0,Wunderground v.1.15,2013-05-07 10:04:00,
2013-05-07 03:09:00,59.1,53.9,30.00,West,274,2.0,3.0,83,0.00,,,0.00,0,Wunderground v.1.15,2013-05-07 10:09:00,
2013-05-07 03:19:00,59.3,53.8,30.00,West,275,2.0,2.0,82,0.00,,,0.00,0,Wunderground v.1.15,2013-05-07 10:19:00,
2013-05-07 03:24:00,59.3,53.8,30.00,West,276,2.0,2.0,82,0.00,,,0.00,0,Wunderground v.1.15,2013-05-07 10:24:00,
2013-05-07 03:34:00,59.4,53.9,30.00,West,274,2.0,4.0,82,0.00,,,0.00,0,Wunderground v.1.15,2013-05-07 10:34:00,
2013-05-07 03:39:00,59.4,53.9,30.00,West,274,4.0,4.0,82,0.00,,,0.00,0,Wunderground v.1.15,2013-05-07 10:39:00,
2013-05-07 03:49:00,59.4,53.9,30.00,West,276,3.0,3.0,82,0.00,,,0.00,0,Wunderground v.1.15,2013-05-07 10:49:00,
2013-05-07 03:59:00,59.4,53.9,30.00,West,274,2.0,2.0,82,0.00,,,0.00,0,Wunderground v.1.15,2013-05-07 10:59:00,
2013-05-07 04:09:00,59.4,53.9,30.00,West,276,3.0,3.0,82,0.00,,,0.00,0,Wunderground v.1.15,2013-05-07 11:09:00,
2013-05-07 04:14:00,59.4,53.9,30.01,West,276,3.0,3.0,82,0.00,,,0.00,0,Wunderground v.1.15,2013-05-07 11:14:00,
2013-05-07 04:24:00,59.3,53.8,30.01,West,275,4.0,4.0,82,0.00,,,0.00,0,Wunderground v.1.15,2013-05-07 11:24:00,
2013-05-07 04:29:00,59.4,53.9,30.01,WNW,291,4.0,4.0,82,0.00,,,0.00,0,Wunderground v.1.15,2013-05-07 11:29:00,
2013-05-07 04:39:00,59.4,53.9,30.01,WNW,291,3.0,3.0,82,0.00,,,0.00,0,Wunderground v.1.15,2013-05-07 11:39:00,
2013-05-07 04:44:00,59.4,53.9,30.01,WNW,290,2.0,3.0,82,0.00,,,0.00,0,Wunderground v.1.15,2013-05-07 11:44:00,
2013-05-07 04:49:00,59.5,54.0,30.01,WNW,291,2.0,4.0,82,0.00,,,0.00,0,Wunderground v.1.15,2013-05-07 11:49:00,
2013-05-07 04:59:00,59.4,53.9,30.01,WNW,291,2.0,2.0,82,0.00,,,0.00,0,Wunderground v.1.15,2013-05-07 11:59:00,
2013-05-07 05:04:00,59.5,54.0,30.01,WNW,292,1.0,2.0,82,0.00,,,0.00,0,Wunderground v.1.15,2013-05-07 12:04:00,
2013-05-07 05:14:00,59.4,53.9,30.01,WNW,293,1.0,3.0,82,0.00,,,0.00,0,Wunderground v.1.15,2013-05-07 12:14:00,
2013-05-07 05:24:00,59.4,53.9,30.01,WNW,291,2.0,3.0,82,0.00,,,0.00,0,Wunderground v.1.15,2013-05-07 12:24:00,
2013-05-07 05:29:00,59.4,53.9,30.01,WNW,291,3.0,3.0,82,0.00,,,0.00,0,Wunderground v.1.15,2013-05-07 12:29:00,
2013-05-07 05:39:00,59.4,53.9,30.02,WNW,284,3.0,3.0,82,0.00,,,0.00,0,Wunderground v.1.15,2013-05-07 12:39:00,
2013-05-07 05:44:00,59.5,54.0,30.02,West,280,4.0,7.0,82,0.00,,,0.00,0,Wunderground v.1.15,2013-05-07 12:44:00,
2013-05-07 05:54:00,59.6,54.1,30.02,West,271,4.0,5.0,82,0.00,,,0.00,0,Wunderground v.1.15,2013-05-07 12:54:00,
2013-05-07 06:04:00,59.5,54.0,30.02,SSW,213,4.0,5.0,82,0.00,,,0.00,0,Wunderground v.1.15,2013-05-07 13:04:00,
2013-05-07 06:14:00,59.4,54.2,30.02,West,268,3.0,5.0,83,0.00,,,0.00,0,Wunderground v.1.15,2013-05-07 13:14:00,
2013-05-07 06:19:00,59.3,54.1,30.02,West,268,2.0,2.0,83,0.00,,,0.00,0,Wunderground v.1.15,2013-05-07 13:19:00,
2013-05-07 06:24:00,59.3,54.1,30.02,WNW,295,3.0,7.0,83,0.00,,,0.00,5,Wunderground v.1.15,2013-05-07 13:24:00,
2013-05-07 06:34:00,59.2,54.0,30.02,WNW,298,4.0,4.0,83,0.00,,,0.00,14,Wunderground v.1.15,2013-05-07 13:34:00,
2013-05-07 06:39:00,59.1,53.9,30.02,SSW,213,4.0,4.0,83,0.00,,,0.00,18,Wunderground v.1.15,2013-05-07 13:39:00,
2013-05-07 06:49:00,59.1,54.3,30.02,WNW,294,3.0,3.0,84,0.00,,,0.00,33,Wunderground v.1.15,2013-05-07 13:49:00,
2013-05-07 06:59:00,59.2,54.4,30.03,WNW,297,2.0,2.0,84,0.00,,,0.00,58,Wunderground v.1.15,2013-05-07 13:59:00,
2013-05-07 07:09:00,59.3,54.5,30.03,SSW,213,2.0,2.0,84,0.00,,,0.00,86,Wunderground v.1.15,2013-05-07 14:09:00,
2013-05-07 07:14:00,59.4,54.2,30.03,WNW,299,2.0,2.0,83,0.00,,,0.00,93,Wunderground v.1.15,2013-05-07 14:14:00,
2013-05-07 07:24:00,59.6,54.4,30.04,WNW,302,2.0,2.0,83,0.00,,,0.00,146,Wunderground v.1.15,2013-05-07 14:24:00,
2013-05-07 07:29:00,59.8,54.6,30.04,WNW,297,2.0,2.0,83,0.00,,,0.00,134,Wunderground v.1.15,2013-05-07 14:29:00,
2013-05-07 07:39:00,60.2,54.3,30.04,WNW,294,2.0,3.0,81,0.00,,,0.00,204,Wunderground v.1.15,2013-05-07 14:39:00,
2013-05-07 07:49:00,60.3,54.4,30.04,WNW,291,5.0,5.0,81,0.00,,,0.00,211,Wunderground v.1.15,2013-05-07 14:49:00,
2013-05-07 07:54:00,60.4,54.9,30.05,WNW,289,4.0,5.0,82,0.00,,,0.00,232,Wunderground v.1.15,2013-05-07 14:54:00,
2013-05-07 08:04:00,60.5,54.6,30.05,WNW,283,3.0,7.0,81,0.00,,,0.00,269,Wunderground v.1.15,2013-05-07 15:04:00,
2013-05-07 08:09:00,60.5,55.0,30.05,West,271,4.0,5.0,82,0.00,,,0.00,142,Wunderground v.1.15,2013-05-07 15:09:00,
2013-05-07 08:19:00,60.0,54.5,30.05,West,272,5.0,5.0,82,0.00,,,0.00,171,Wunderground v.1.15,2013-05-07 15:19:00,
2013-05-07 08:29:00,60.0,54.5,30.05,WNW,284,4.0,5.0,82,0.00,,,0.00,169,Wunderground v.1.15,2013-05-07 15:29:00,
2013-05-07 08:34:00,59.9,54.7,30.05,SSW,213,5.0,5.0,83,0.00,,,0.00,169,Wunderground v.1.15,2013-05-07 15:34:00,
2013-05-07 08:44:00,60.0,54.8,30.05,WSW,239,5.0,5.0,83,0.00,,,0.00,199,Wunderground v.1.15,2013-05-07 15:44:00,
2013-05-07 08:49:00,60.1,54.9,30.05,SSW,213,4.0,6.0,83,0.00,,,0.00,218,Wunderground v.1.15,2013-05-07 15:49:00,
2013-05-07 08:59:00,60.5,55.6,30.06,SW,218,4.0,4.0,84,0.00,,,0.00,306,Wunderground v.1.15,2013-05-07 15:59:00,
2013-05-07 09:09:00,59.9,55.1,30.06,WSW,249,4.0,8.0,84,0.00,,,0.00,376,Wunderground v.1.15,2013-05-07 16:09:00,
2013-05-07 09:19:00,59.9,55.1,30.06,WSW,253,5.0,6.0,84,0.00,,,0.00,387,Wunderground v.1.15,2013-05-07 16:19:00,
2013-05-07 09:29:00,60.0,55.2,30.06,WSW,255,5.0,6.0,84,0.00,,,0.00,417,Wunderground v.1.15,2013-05-07 16:29:00,
2013-05-07 09:34:00,59.8,55.0,30.06,SSW,213,5.0,6.0,84,0.00,,,0.00,473,Wunderground v.1.15,2013-05-07 16:34:00,
2013-05-07 09:44:00,60.1,55.2,30.06,WSW,249,5.0,7.0,84,0.00,,,0.00,306,Wunderground v.1.15,2013-05-07 16:44:00,
2013-05-07 09:49:00,60.2,55.0,30.06,SSW,213,5.0,5.0,83,0.00,,,0.00,334,Wunderground v.1.15,2013-05-07 16:49:00,
2013-05-07 09:59:00,60.4,55.2,30.06,SW,230,7.0,9.0,83,0.00,,,0.00,304,Wunderground v.1.15,2013-05-07 16:59:00,
2013-05-07 10:09:00,60.6,55.4,30.06,WSW,252,8.0,10.0,83,0.00,,,0.00,424,Wunderground v.1.15,2013-05-07 17:09:00,
2013-05-07 10:14:00,60.8,55.6,30.06,West,266,9.0,10.0,83,0.00,,,0.00,443,Wunderground v.1.15,2013-05-07 17:14:00,
2013-05-07 10:24:00,60.9,55.4,30.06,WSW,252,9.0,14.0,82,0.00,,,0.00,466,Wunderground v.1.15,2013-05-07 17:24:00,
2013-05-07 10:34:00,60.9,55.4,30.06,WSW,257,9.0,12.0,82,0.00,,,0.00,415,Wunderground v.1.15,2013-05-07 17:34:00,
2013-05-07 10:44:00,60.6,55.4,30.06,WSW,257,8.0,10.0,83,0.00,,,0.00,366,Wunderground v.1.15,2013-05-07 17:44:00,
2013-05-07 10:49:00,60.5,55.3,30.06,WSW,240,9.0,9.0,83,0.00,,,0.00,396,Wunderground v.1.15,2013-05-07 17:49:00,
2013-05-07 10:59:00,60.8,55.6,30.06,WSW,248,8.0,10.0,83,0.00,,,0.00,529,Wunderground v.1.15,2013-05-07 17:59:00,
2013-05-07 11:09:00,61.1,55.9,30.06,SW,230,8.0,8.0,83,0.00,,,0.00,478,Wunderground v.1.15,2013-05-07 18:09:00,
2013-05-07 11:19:00,61.4,55.5,30.07,West,272,9.0,10.0,81,0.00,,,0.00,642,Wunderground v.1.15,2013-05-07 18:19:00,
2013-05-07 11:29:00,61.5,56.0,30.07,WSW,241,9.0,10.0,82,0.00,,,0.00,610,Wunderground v.1.15,2013-05-07 18:29:00,
2013-05-07 11:34:00,61.4,55.9,30.07,WSW,250,9.0,10.0,82,0.00,,,0.00,628,Wunderground v.1.15,2013-05-07 18:34:00,
2013-05-07 11:44:00,60.9,55.4,30.07,West,267,11.0,13.0,82,0.00,,,0.00,403,Wunderground v.1.15,2013-05-07 18:44:00,
2013-05-07 11:54:00,60.6,55.4,30.07,West,262,10.0,11.0,83,0.00,,,0.00,420,Wunderground v.1.15,2013-05-07 18:54:00,
2013-05-07 11:59:00,60.8,55.6,30.07,WSW,252,10.0,10.0,83,0.00,,,0.00,649,Wunderground v.1.15,2013-05-07 18:59:00,
2013-05-07 12:04:00,60.8,55.6,30.07,West,266,10.0,12.0,83,0.00,,,0.00,369,Wunderground v.1.15,2013-05-07 19:04:00,
2013-05-07 12:14:00,60.5,55.6,30.07,WSW,253,10.0,14.0,84,0.00,,,0.00,858,Wunderground v.1.15,2013-05-07 19:14:00,
2013-05-07 12:24:00,60.9,56.4,30.06,SSW,213,10.0,12.0,85,0.00,,,0.00,967,Wunderground v.1.15,2013-05-07 19:24:00,
2013-05-07 12:34:00,60.7,55.8,30.06,WSW,242,11.0,14.0,84,0.00,,,0.00,891,Wunderground v.1.15,2013-05-07 19:34:00,
2013-05-07 12:44:00,60.8,56.3,30.06,SW,235,10.0,12.0,85,0.00,,,0.00,882,Wunderground v.1.15,2013-05-07 19:44:00,
2013-05-07 12:54:00,60.6,56.1,30.06,SSW,213,10.0,11.0,85,0.00,,,0.00,893,Wunderground v.1.15,2013-05-07 19:54:00,
2013-05-07 13:04:00,60.6,56.4,30.06,WSW,245,9.0,10.0,86,0.00,,,0.00,962,Wunderground v.1.15,2013-05-07 20:04:00,
2013-05-07 13:09:00,60.5,56.3,30.06,SW,226,10.0,10.0,86,0.00,,,0.00,949,Wunderground v.1.15,2013-05-07 20:09:00,
2013-05-07 13:19:00,60.7,56.2,30.05,West,265,8.0,8.0,85,0.00,,,0.00,939,Wunderground v.1.15,2013-05-07 20:19:00,
2013-05-07 13:29:00,60.9,56.7,30.05,WSW,244,8.0,8.0,86,0.00,,,0.00,932,Wunderground v.1.15,2013-05-07 20:29:00,
2013-05-07 13:34:00,61.6,56.7,30.05,SSW,213,6.0,8.0,84,0.00,,,0.00,930,Wunderground v.1.15,2013-05-07 20:34:00,
2013-05-07 13:39:00,61.8,56.9,30.05,SW,236,6.0,7.0,84,0.00,,,0.00,928,Wunderground v.1.15,2013-05-07 20:39:00,
2013-05-07 13:49:00,61.7,56.1,30.05,WSW,249,6.0,6.0,82,0.00,,,0.00,925,Wunderground v.1.15,2013-05-07 20:49:00,
2013-05-07 13:59:00,61.9,56.7,30.05,West,261,6.0,8.0,83,0.00,,,0.00,916,Wunderground v.1.15,2013-05-07 20:59:00,
2013-05-07 14:04:00,61.4,56.5,30.05,WSW,246,6.0,8.0,84,0.00,,,0.00,914,Wunderground v.1.15,2013-05-07 21:04:00,
2013-05-07 14:14:00,61.9,56.7,30.04,SSW,213,6.0,9.0,83,0.00,,,0.00,905,Wunderground v.1.15,2013-05-07 21:14:00,
2013-05-07 14:24:00,62.3,57.4,30.04,SSW,213,7.0,7.0,84,0.00,,,0.00,896,Wunderground v.1.15,2013-05-07 21:24:00,
2013-05-07 14:34:00,63.0,57.4,30.04,SW,226,6.0,10.0,82,0.00,,,0.00,886,Wunderground v.1.15,2013-05-07 21:34:00,
2013-05-07 14:39:00,62.7,56.8,30.04,WSW,251,7.0,7.0,81,0.00,,,0.00,882,Wunderground v.1.15,2013-05-07 21:39:00,
2013-05-07 14:49:00,62.2,56.6,30.04,WSW,255,8.0,8.0,82,0.00,,,0.00,868,Wunderground v.1.15,2013-05-07 21:49:00,
2013-05-07 14:54:00,62.3,56.7,30.04,WSW,239,9.0,11.0,82,0.00,,,0.00,844,Wunderground v.1.15,2013-05-07 21:54:00,
2013-05-07 15:04:00,62.7,56.4,30.03,WSW,253,10.0,13.0,80,0.00,,,0.00,846,Wunderground v.1.15,2013-05-07 22:04:00,
2013-05-07 15:09:00,63.2,56.6,30.03,SW,224,10.0,10.0,79,0.00,,,0.00,840,Wunderground v.1.15,2013-05-07 22:09:00,
2013-05-07 15:14:00,63.4,56.8,30.03,WSW,247,9.0,10.0,79,0.00,,,0.00,819,Wunderground v.1.15,2013-05-07 22:14:00,
2013-05-07 15:24:00,64.1,56.4,30.03,SSW,213,7.0,8.0,76,0.00,,,0.00,816,Wunderground v.1.15,2013-05-07 22:24:00,
2013-05-07 15:29:00,65.0,55.8,30.02,West,276,7.0,12.0,72,0.00,,,0.00,807,Wunderground v.1.15,2013-05-07 22:29:00,
2013-05-07 15:39:00,65.1,55.1,30.02,WSW,243,10.0,10.0,70,0.00,,,0.00,791,Wunderground v.1.15,2013-05-07 22:39:00,
2013-05-07 15:49:00,63.9,56.5,30.02,SSW,213,9.0,9.0,77,0.00,,,0.00,737,Wunderground v.1.15,2013-05-07 22:49:00,
2013-05-07 15:54:00,63.1,56.8,30.02,WSW,243,9.0,9.0,80,0.00,,,0.00,724,Wunderground v.1.15,2013-05-07 22:54:00,
2013-05-07 16:04:00,62.5,56.2,30.02,SW,233,10.0,13.0,80,0.00,,,0.00,724,Wunderground v.1.15,2013-05-07 23:04:00,
2013-05-07 16:09:00,62.5,56.2,30.02,WSW,245,11.0,11.0,80,0.00,,,0.00,710,Wunderground v.1.15,2013-05-07 23:09:00,
2013-05-07 16:19:00,63.2,55.9,30.02,WSW,242,12.0,12.0,77,0.00,,,0.00,689,Wunderground v.1.15,2013-05-07 23:19:00,
2013-05-07 16:29:00,61.3,56.4,30.02,West,262,11.0,13.0,84,0.00,,,0.00,659,Wunderground v.1.15,2013-05-07 23:29:00,
2013-05-07 16:34:00,61.0,56.5,30.01,WSW,250,11.0,13.0,85,0.00,,,0.00,645,Wunderground v.1.15,2013-05-07 23:34:00,
2013-05-07 16:44:00,61.1,56.6,30.02,WSW,249,9.0,10.0,85,0.00,,,0.00,619,Wunderground v.1.15,2013-05-07 23:44:00,
2013-05-07 16:49:00,60.4,56.2,30.02,WSW,249,10.0,14.0,86,0.00,,,0.00,603,Wunderground v.1.15,2013-05-07 23:49:00,
2013-05-07 16:59:00,60.8,56.6,30.01,WSW,245,11.0,11.0,86,0.00,,,0.00,571,Wunderground v.1.15,2013-05-07 23:59:00,
2013-05-07 17:09:00,60.8,56.3,30.01,SSW,213,11.0,14.0,85,0.00,,,0.00,543,Wunderground v.1.15,2013-05-08 00:09:00,
2013-05-07 17:14:00,60.4,56.5,30.02,WSW,253,11.0,14.0,87,0.00,,,0.00,527,Wunderground v.1.15,2013-05-08 00:14:00,
2013-05-07 17:24:00,61.5,56.9,30.02,SSW,213,8.0,10.0,85,0.00,,,0.00,499,Wunderground v.1.15,2013-05-08 00:24:00,
2013-05-07 17:29:00,62.7,56.8,30.01,West,276,7.0,10.0,81,0.00,,,0.00,483,Wunderground v.1.15,2013-05-08 00:29:00,
2013-05-07 17:39:00,64.0,55.5,30.02,SSW,213,9.0,9.0,74,0.00,,,0.00,450,Wunderground v.1.15,2013-05-08 00:39:00,
2013-05-07 17:49:00,63.4,55.0,30.02,West,276,11.0,12.0,74,0.00,,,0.00,422,Wunderground v.1.15,2013-05-08 00:49:00,
2013-05-07 17:54:00,63.2,54.8,30.02,WNW,284,12.0,12.0,74,0.00,,,0.00,399,Wunderground v.1.15,2013-05-08 00:54:00,
2013-05-07 18:04:00,63.6,54.8,30.02,WNW,285,11.0,16.0,73,0.00,,,0.00,362,Wunderground v.1.15,2013-05-08 01:04:00,
2013-05-07 18:14:00,63.5,55.1,30.02,SSW,213,8.0,10.0,74,0.00,,,0.00,329,Wunderground v.1.15,2013-05-08 01:14:00,
2013-05-07 18:19:00,63.4,55.0,30.02,WNW,288,9.0,15.0,74,0.00,,,0.00,313,Wunderground v.1.15,2013-05-08 01:19:00,
2013-05-07 18:29:00,63.1,55.0,30.02,SSW,213,10.0,12.0,75,0.00,,,0.00,281,Wunderground v.1.15,2013-05-08 01:29:00,
2013-05-07 18:39:00,62.3,54.6,30.02,West,264,11.0,11.0,76,0.00,,,0.00,244,Wunderground v.1.15,2013-05-08 01:39:00,
2013-05-07 18:44:00,62.1,54.8,30.02,West,266,10.0,11.0,77,0.00,,,0.00,225,Wunderground v.1.15,2013-05-08 01:44:00,
2013-05-07 18:54:00,61.9,54.2,30.02,SSW,213,9.0,13.0,76,0.00,,,0.00,186,Wunderground v.1.15,2013-05-08 01:54:00,
2013-05-07 18:59:00,61.8,54.2,30.02,SSW,213,10.0,10.0,76,0.00,,,0.00,165,Wunderground v.1.15,2013-05-08 01:59:00,
2013-05-07 19:09:00,61.3,54.4,30.02,West,269,9.0,9.0,78,0.00,,,0.00,130,Wunderground v.1.15,2013-05-08 02:09:00,
2013-05-07 19:14:00,61.0,54.4,30.02,West,281,9.0,10.0,79,0.00,,,0.00,113,Wunderground v.1.15,2013-05-08 02:14:00,
2013-05-07 19:24:00,60.7,54.5,30.03,WSW,251,7.0,10.0,80,0.00,,,0.00,79,Wunderground v.1.15,2013-05-08 02:24:00,
2013-05-07 19:29:00,60.6,54.7,30.03,NW,318,4.0,4.0,81,0.00,,,0.00,63,Wunderground v.1.15,2013-05-08 02:29:00,
2013-05-07 19:39:00,59.2,54.7,30.04,SSW,213,5.0,9.0,85,0.00,,,0.00,40,Wunderground v.1.15,2013-05-08 02:39:00,
2013-05-07 19:44:00,58.3,54.8,30.04,South,173,7.0,9.0,88,0.00,,,0.00,30,Wunderground v.1.15,2013-05-08 02:44:00,
2013-05-07 19:54:00,57.8,54.6,30.04,SSW,213,6.0,7.0,89,0.00,,,0.00,14,Wunderground v.1.15,2013-05-08 02:54:00,
2013-05-07 20:04:00,58.0,54.8,30.05,SW,234,5.0,5.0,89,0.00,,,0.00,5,Wunderground v.1.15,2013-05-08 03:04:00,
2013-05-07 20:14:00,57.8,54.6,30.05,SW,233,4.0,5.0,89,0.00,,,0.00,0,Wunderground v.1.15,2013-05-08 03:14:00,
2013-05-07 20:24:00,57.4,54.2,30.06,SSW,213,5.0,5.0,89,0.00,,,0.00,0,Wunderground v.1.15,2013-05-08 03:24:00,
2013-05-07 20:29:00,57.4,54.5,30.06,SSW,213,4.0,4.0,90,0.00,,,0.00,0,Wunderground v.1.15,2013-05-08 03:29:00,
2013-05-07 20:39:00,57.3,54.4,30.06,SSW,213,2.0,2.0,90,0.00,,,0.00,0,Wunderground v.1.15,2013-05-08 03:39:00,
2013-05-07 20:44:00,57.6,54.7,30.06,SSW,195,3.0,8.0,90,0.00,,,0.00,0,Wunderground v.1.15,2013-05-08 03:44:00,
2013-05-07 20:54:00,57.0,54.1,30.06,SSW,213,5.0,6.0,90,0.00,,,0.00,0,Wunderground v.1.15,2013-05-08 03:54:00,
2013-05-07 20:59:00,56.9,54.3,30.06,SSW,213,4.0,4.0,91,0.00,,,0.00,0,Wunderground v.1.15,2013-05-08 03:59:00,
2013-05-07 21:04:00,56.9,54.3,30.06,SW,218,3.0,4.0,91,0.00,,,0.00,0,Wunderground v.1.15,2013-05-08 04:04:00,
2013-05-07 21:09:00,56.9,54.3,30.06,SW,230,3.0,3.0,91,0.00,,,0.00,0,Wunderground v.1.15,2013-05-08 04:09:00,
2013-05-07 21:14:00,56.8,54.2,30.06,SW,232,2.0,3.0,91,0.00,,,0.00,0,Wunderground v.1.15,2013-05-08 04:14:00,
2013-05-07 21:24:00,56.8,54.5,30.07,SW,232,2.0,3.0,92,0.00,,,0.00,0,Wunderground v.1.15,2013-05-08 04:24:00,
2013-05-07 21:34:00,56.7,54.4,30.07,SSE,166,4.0,6.0,92,0.00,,,0.00,0,Wunderground v.1.15,2013-05-08 04:34:00,
2013-05-07 21:39:00,57.0,54.7,30.07,SSW,195,5.0,5.0,92,0.00,,,0.00,0,Wunderground v.1.15,2013-05-08 04:39:00,
2013-05-07 21:44:00,56.7,54.4,30.08,SSW,198,5.0,6.0,92,0.00,,,0.00,0,Wunderground v.1.15,2013-05-08 04:44:00,
2013-05-07 21:49:00,56.7,54.4,30.08,SW,222,6.0,7.0,92,0.00,,,0.00,0,Wunderground v.1.15,2013-05-08 04:49:00,
2013-05-07 21:59:00,56.6,54.6,30.07,SW,218,5.0,5.0,93,0.00,,,0.00,0,Wunderground v.1.15,2013-05-08 04:59:00,
2013-05-07 22:04:00,56.7,54.7,30.07,WSW,249,5.0,6.0,93,0.00,,,0.00,0,Wunderground v.1.15,2013-05-08 05:04:00,
2013-05-07 22:09:00,56.5,54.5,30.07,WSW,249,5.0,8.0,93,0.00,,,0.00,0,Wunderground v.1.15,2013-05-08 05:09:00,
2013-05-07 22:14:00,56.4,54.4,30.07,WSW,241,5.0,8.0,93,0.00,,,0.00,0,Wunderground v.1.15,2013-05-08 05:14:00,
2013-05-07 22:24:00,56.3,54.0,30.07,WSW,253,4.0,5.0,92,0.00,,,0.00,0,Wunderground v.1.15,2013-05-08 05:24:00,
2013-05-07 22:29:00,56.2,53.9,30.08,WSW,243,4.0,6.0,92,0.00,,,0.00,0,Wunderground v.1.15,2013-05-08 05:29:00,
2013-05-07 22:39:00,56.3,54.0,30.08,WSW,237,4.0,8.0,92,0.00,,,0.00,0,Wunderground v.1.15,2013-05-08 05:39:00,
2013-05-07 22:44:00,56.2,53.9,30.08,WSW,248,5.0,8.0,92,0.00,,,0.00,0,Wunderground v.1.15,2013-05-08 05:44:00,
2013-05-07 22:54:00,56.0,54.0,30.08,SW,222,6.0,8.0,93,0.00,,,0.00,0,Wunderground v.1.15,2013-05-08 05:54:00,
2013-05-07 22:59:00,55.9,53.9,30.08,SSW,213,7.0,10.0,93,0.00,,,0.00,0,Wunderground v.1.15,2013-05-08 05:59:00,
2013-05-07 23:09:00,55.8,54.1,30.07,SSW,203,11.0,11.0,94,0.00,,,0.00,0,Wunderground v.1.15,2013-05-08 06:09:00,
2013-05-07 23:14:00,55.6,53.9,30.08,SSW,199,11.0,11.0,94,0.00,,,0.00,0,Wunderground v.1.15,2013-05-08 06:14:00,
2013-05-07 23:19:00,55.5,53.8,30.08,SSW,199,12.0,12.0,94,0.00,,,0.00,0,Wunderground v.1.15,2013-05-08 06:19:00,
2013-05-07 23:29:00,55.8,54.4,30.08,SSW,213,10.0,10.0,95,0.00,,,0.00,0,Wunderground v.1.15,2013-05-08 06:29:00,
2013-05-07 23:39:00,55.3,53.6,30.08,WSW,241,7.0,7.0,94,0.00,,,0.00,0,Wunderground v.1.15,2013-05-08 06:39:00,
2013-05-07 23:44:00,55.3,53.6,30.08,SW,232,5.0,7.0,94,0.00,,,0.00,0,Wunderground v.1.15,2013-05-08 06:44:00,
2013-05-07 23:49:00,55.3,53.6,30.08,SW,230,5.0,6.0,94,0.00,,,0.00,0,Wunderground v.1.15,2013-05-08 06:49:00,
2013-05-07 23:59:00,55.3,53.6,30.08,SW,222,6.0,6.0,94,0.00,,,0.00,0,Wunderground v.1.15,2013-05-08 06:59:00,